Terminal Aerodrome Forecast
Issued by NWS Kansas City/Pleasant Hill, MO

Home | Current Version | Previous Version | Text Only | Print | Product List | Glossary On
Versions: 1 2 3 4 5 6 7 8 9 10 11 12 13 14 15 16 17
000
FTUS43 KEAX 271100
TAFMCI
TAF
KMCI 271120Z 2712/2812 VRB05KT P6SM SKC
     FM271700 12008KT P6SM SKC
     FM280300 15014KT P6SM SKC=

USA.gov is the U.S. government's official web portal to all federal, state and local government web resources and services.